Weather History for Columbus, OH

Change the Weather History Date:

Friday, June 14, 2013

  Actual Average Record
Temperature  
Mean Temperature 69 °F 71 °F  
Max Temperature 78 °F 82 °F 94 °F (1994)
Min Temperature 60 °F 61 °F 44 °F (1959)
Degree Days  
Heating Degree Days 0 1  
Month to date heating degree days 6 18  
Since 1 June heating degree days 6 18  
Since 1 July heating degree days 5160 5245  
Cooling Degree Days 4 7  
Month to date cooling degree days 82 78  
Year to date cooling degree days 243 160  
Since 1 June cooling degree days 82 78  
Growing Degree Days 19 (Base 50)    
Moisture  
Dew Point 55 °F    
Average Humidity 64    
Maximum Humidity 84    
Minimum Humidity 43    
Precipitation  
Precipitation 0.00 in 0.13 in 2.49 in (1964)
Month to date precipitation 3.11 1.93  
Year to date precipitation 15.58 17.50  
Snow  
Snow 0.00 in 0.00 in 0.00 in ()
Month to date snowfall 0.0 0.0  
Since 1 June snowfall 0.0 0.0  
Since 1 July snowfall 41.2 26.7  
Snow Depth 0.00 in    
Sea Level Pressure  
Sea Level Pressure 29.98 in    
Wind  
Wind Speed 9 mph (North)    
Max Wind Speed 17 mph    
Max Gust Speed 22 mph    
Visibility 10 miles    
Events      
T = Trace of Precipitation, MM = Missing Value Source: NWS Daily Summary

Daily Weather History Graph

Daily Weather History Graph

Search for Another Location

Airport:

Trip Planner

Search our weather history database for the weather conditions in past years. The results will help you decide how hot, cold, wet, or windy it might be!

Date:

Astronomy

Jun. 14, 2013 Rise Set
Actual Time 6:02 AM EDT 9:01 PM EDT
Civil Twilight 5:29 AM EDT 9:34 PM EDT
Nautical Twilight 4:47 AM EDT 10:16 PM EDT
Astronomical Twilight 3:59 AM EDT 11:04 PM EDT
Moon 11:36 AM EDT (6/14) 12:07 AM EDT (6/14)
Length of Visible Light 16h 05m
Length of Day
14h 59m
Waxing Crescent, 30% of the Moon is Illuminated
Jun 14
Waxing Crescent
Jun 16
First Quarter
Jun 23
Full
Jun 30
Last Quarter
Jul 8
New

Hourly Weather History & Observations

Time (EDT) Temp. Dew Point Humidity Pressure Visibility Wind Dir Wind Speed Gust Speed Precip Events Conditions
12:51 AM 66.0 °F 57.0 °F 73% 29.89 in 10.0 mi North 3.5 mph - 0.00 in   Clear
1:51 AM 64.9 °F 55.0 °F 70% 29.90 in 10.0 mi North 5.8 mph - N/A   Partly Cloudy
2:51 AM 64.0 °F 55.9 °F 75% 29.90 in 10.0 mi NW 4.6 mph - N/A   Partly Cloudy
3:51 AM 61.0 °F 55.9 °F 83% 29.90 in 10.0 mi North 3.5 mph - N/A   Clear
4:51 AM 61.0 °F 55.9 °F 83% 29.90 in 10.0 mi North 3.5 mph - N/A   Partly Cloudy
5:51 AM 60.1 °F 55.9 °F 86% 29.91 in 10.0 mi NNW 4.6 mph - N/A   Partly Cloudy
6:51 AM 62.1 °F 57.0 °F 84% 29.94 in 10.0 mi NNW 6.9 mph - N/A   Partly Cloudy
7:51 AM 64.9 °F 57.0 °F 75% 29.95 in 10.0 mi North 11.5 mph - N/A   Clear
8:51 AM 66.9 °F 57.0 °F 70% 29.98 in 10.0 mi North 11.5 mph - N/A   Clear
9:51 AM 69.1 °F 55.9 °F 63% 30.00 in 10.0 mi North 12.7 mph - N/A   Partly Cloudy
10:51 AM 71.1 °F 55.9 °F 59% 30.01 in 10.0 mi NNW 16.1 mph 21.9 mph N/A   Partly Cloudy
11:51 AM 73.0 °F 55.0 °F 53% 30.02 in 10.0 mi North 16.1 mph - N/A   Scattered Clouds
12:51 PM 73.0 °F 54.0 °F 51% 30.03 in 10.0 mi North 12.7 mph - N/A   Scattered Clouds
1:51 PM 73.9 °F 55.0 °F 52% 30.02 in 10.0 mi North 11.5 mph - N/A   Scattered Clouds
2:51 PM 75.9 °F 55.0 °F 48% 30.01 in 10.0 mi North 13.8 mph - N/A   Partly Cloudy
3:51 PM 75.9 °F 54.0 °F 46% 30.01 in 10.0 mi North 11.5 mph 17.3 mph N/A   Scattered Clouds
4:51 PM 77.0 °F 54.0 °F 45% 30.01 in 10.0 mi North 11.5 mph - N/A   Scattered Clouds
5:51 PM 77.0 °F 54.0 °F 45% 30.01 in 10.0 mi North 11.5 mph - N/A   Partly Cloudy
6:51 PM 75.9 °F 54.0 °F 46% 30.01 in 10.0 mi NNW 5.8 mph - N/A   Partly Cloudy
7:51 PM 75.0 °F 54.0 °F 48% 30.01 in 10.0 mi North 9.2 mph - N/A   Partly Cloudy
8:51 PM 72.0 °F 55.0 °F 55% 30.03 in 10.0 mi North 8.1 mph - N/A   Clear
9:51 PM 70.0 °F 55.9 °F 61% 30.04 in 10.0 mi NNE 4.6 mph - N/A   Clear
10:51 PM 66.9 °F 55.9 °F 68% 30.06 in 10.0 mi NNE 3.5 mph - N/A   Clear
11:51 PM 64.9 °F 55.0 °F 70% 30.06 in 10.0 mi ENE 4.6 mph - N/A   Clear